Hourly Weather Kitzbuhel

Today, 21 September, Monday

Time Temperature Precipitation Wind Pressure Humidity
00:00 +13°C° 0 mm 1 mps 677 mmHg 93%
01:00 +13°C° 0 mm 1 mps 677 mmHg 93%
02:00 +13°C° 0 mm 1 mps 677 mmHg 93%
03:00 +13°C° 0 mm 1 mps 677 mmHg 93%
04:00 +12°C° 0 mm 1 mps 677 mmHg 92%
05:00 +13°C° 0 mm 1 mps 677 mmHg 92%
06:00 +13°C° 0 mm 1 mps 677 mmHg 91%
07:00 +13°C° 0 mm 1 mps 677 mmHg 90%
08:00 +16°C° 0 mm 1 mps 678 mmHg 83%
09:00 +19°C° 0 mm 1 mps 678 mmHg 75%
10:00 +20°C° 0 mm 0 mps 679 mmHg 67%
11:00 +22°C° 0.8 mm 1 mps 678 mmHg 68%
12:00 +22°C° 0.8 mm 1 mps 678 mmHg 69%
13:00 +22°C° 0.8 mm 1 mps 678 mmHg 70%
14:00 +22°C° 1.2 mm 1 mps 678 mmHg 74%
15:00 +21°C° 1.2 mm 1 mps 678 mmHg 79%
16:00 +21°C° 1.2 mm 1 mps 677 mmHg 84%
17:00 +19°C° 0.5 mm 1 mps 677 mmHg 87%
18:00 +18°C° 0.5 mm 1 mps 677 mmHg 90%
19:00 +15°C° 0.5 mm 1 mps 677 mmHg 94%
20:00 +15°C° 0.1 mm 1 mps 677 mmHg 93%
21:00 +14°C° 0.1 mm 1 mps 677 mmHg 93%
22:00 +14°C° 0.1 mm 2 mps 677 mmHg 93%
23:00 +14°C° 0 mm 2 mps 677 mmHg 92%

Tomorrow, 22 September, Tuesday

Time Temperature Precipitation Wind Pressure Humidity
00:00 +13°C° 0 mm 2 mps 677 mmHg 92%
01:00 +13°C° 0 mm 2 mps 676 mmHg 92%
02:00 +13°C° 0 mm 2 mps 676 mmHg 92%
03:00 +12°C° 0 mm 2 mps 676 mmHg 91%
04:00 +12°C° 0 mm 2 mps 676 mmHg 91%
05:00 +12°C° 0 mm 2 mps 676 mmHg 90%
06:00 +13°C° 0 mm 2 mps 676 mmHg 90%
07:00 +13°C° 0 mm 2 mps 676 mmHg 89%
08:00 +16°C° 0 mm 1 mps 676 mmHg 79%
09:00 +19°C° 0 mm 1 mps 677 mmHg 70%
10:00 +20°C° 0 mm 0 mps 677 mmHg 61%
11:00 +21°C° 0.1 mm 0 mps 677 mmHg 58%
12:00 +23°C° 0.1 mm 1 mps 677 mmHg 56%
13:00 +24°C° 0.1 mm 1 mps 676 mmHg 54%
14:00 +23°C° 0.7 mm 1 mps 676 mmHg 63%
15:00 +22°C° 0.7 mm 1 mps 675 mmHg 71%
16:00 +21°C° 0.7 mm 1 mps 675 mmHg 80%
17:00 +19°C° 1.2 mm 1 mps 675 mmHg 84%
18:00 +18°C° 1.2 mm 1 mps 674 mmHg 88%
19:00 +15°C° 1.2 mm 1 mps 674 mmHg 92%
20:00 +15°C° 0.4 mm 1 mps 674 mmHg 92%
21:00 +14°C° 0.4 mm 2 mps 674 mmHg 93%
22:00 +13°C° 0.4 mm 2 mps 674 mmHg 93%
23:00 +13°C° 0.1 mm 2 mps 673 mmHg 93%

Day after tomorrow, 23 September, Wednesday

Time Temperature Precipitation Wind Pressure Humidity
00:00 +13°C° 0.1 mm 2 mps 673 mmHg 93%
01:00 +13°C° 0.1 mm 2 mps 673 mmHg 92%
02:00 +13°C° 0.1 mm 1 mps 673 mmHg 92%
03:00 +13°C° 0.1 mm 1 mps 673 mmHg 92%
04:00 +13°C° 0.1 mm 1 mps 673 mmHg 91%
05:00 +13°C° 0.1 mm 1 mps 673 mmHg 91%
06:00 +13°C° 0.1 mm 1 mps 673 mmHg 91%
07:00 +12°C° 0.1 mm 0 mps 673 mmHg 91%
08:00 +14°C° 0.3 mm 1 mps 673 mmHg 90%
09:00 +15°C° 0.3 mm 1 mps 673 mmHg 89%
10:00 +16°C° 0.3 mm 1 mps 674 mmHg 88%
11:00 +16°C° 0.6 mm 1 mps 674 mmHg 89%
12:00 +14°C° 0.6 mm 0 mps 673 mmHg 90%
13:00 +14°C° 0.6 mm 0 mps 673 mmHg 91%
14:00 +15°C° 0.1 mm 0 mps 673 mmHg 87%
15:00 +15°C° 0.1 mm 0 mps 673 mmHg 84%
16:00 +16°C° 0.1 mm 0 mps 673 mmHg 81%
17:00 +14°C° 0.1 mm 0 mps 673 mmHg 85%
18:00 +13°C° 0.1 mm 0 mps 673 mmHg 88%
19:00 +12°C° 0.1 mm 0 mps 673 mmHg 92%
20:00 +12°C° 0 mm 1 mps 673 mmHg 92%
21:00 +12°C° 0 mm 1 mps 673 mmHg 91%
22:00 +11°C° 0 mm 1 mps 673 mmHg 91%
23:00 +11°C° 0 mm 1 mps 673 mmHg 90%

24 September, Thursday

Time Temperature Precipitation Wind Pressure Humidity
00:00 +11°C° 0 mm 1 mps 673 mmHg 90%
01:00 +11°C° 0 mm 1 mps 673 mmHg 89%
02:00 +11°C° 0 mm 1 mps 673 mmHg 88%
03:00 +11°C° 0 mm 1 mps 673 mmHg 87%
04:00 +11°C° 0 mm 1 mps 673 mmHg 87%
05:00 +11°C° 0 mm 1 mps 673 mmHg 86%
06:00 +12°C° 0 mm 1 mps 673 mmHg 85%
07:00 +12°C° 0 mm 1 mps 674 mmHg 84%
08:00 +14°C° 0 mm 1 mps 674 mmHg 75%
09:00 +18°C° 0 mm 1 mps 675 mmHg 67%
10:00 +20°C° 0 mm 1 mps 676 mmHg 59%
11:00 +21°C° 0 mm 1 mps 676 mmHg 56%
12:00 +21°C° 0 mm 1 mps 676 mmHg 54%
13:00 +22°C° 0 mm 1 mps 676 mmHg 51%
14:00 +22°C° 0 mm 1 mps 675 mmHg 56%
15:00 +21°C° 0 mm 1 mps 675 mmHg 61%
16:00 +20°C° 0 mm 2 mps 674 mmHg 66%
17:00 +18°C° 0 mm 1 mps 674 mmHg 74%
18:00 +15°C° 0 mm 1 mps 673 mmHg 83%
19:00 +13°C° 0 mm 1 mps 673 mmHg 91%
20:00 +13°C° 0 mm 2 mps 672 mmHg 90%
21:00 +13°C° 0 mm 2 mps 672 mmHg 89%
22:00 +13°C° 0 mm 2 mps 672 mmHg 88%
23:00 +13°C° 0 mm 2 mps 672 mmHg 88%

25 September, Friday

Time Temperature Precipitation Wind Pressure Humidity
00:00 +13°C° 0 mm 2 mps 671 mmHg 88%
01:00 +13°C° 0 mm 1 mps 671 mmHg 88%
02:00 +13°C° 0.9 mm 1 mps 670 mmHg 91%
03:00 +12°C° 0.9 mm 1 mps 670 mmHg 94%
04:00 +12°C° 0.9 mm 1 mps 670 mmHg 97%
05:00 +12°C° 2.4 mm 1 mps 670 mmHg 97%
06:00 +11°C° 2.4 mm 1 mps 669 mmHg 98%
07:00 +11°C° 2.4 mm 1 mps 669 mmHg 98%
08:00 +10°C° 3.9 mm 1 mps 669 mmHg 98%
09:00 +10°C° 3.9 mm 1 mps 669 mmHg 98%
10:00 +8°C° 3.9 mm 2 mps 669 mmHg 97%
11:00 +8°C° 5.4 mm 1 mps 669 mmHg 97%
12:00 +7°C° 5.4 mm 1 mps 669 mmHg 98%
13:00 +6°C° 5.4 mm 1 mps 669 mmHg 98%
14:00 +6°C° 1.7 mm 1 mps 669 mmHg 98%
15:00 +6°C° 1.7 mm 1 mps 669 mmHg 98%
16:00 +6°C° 1.7 mm 1 mps 669 mmHg 98%
17:00 +6°C° 0.6 mm 1 mps 669 mmHg 98%
18:00 +6°C° 0.6 mm 1 mps 669 mmHg 98%
19:00 +6°C° 0.6 mm 1 mps 669 mmHg 98%
20:00 +5°C° 2.4 mm 1 mps 669 mmHg 98%
21:00 +5°C° 2.4 mm 1 mps 669 mmHg 98%
22:00 +4°C° 2.4 mm 1 mps 669 mmHg 99%
23:00 +4°C° 2.6 mm 1 mps 668 mmHg 99%

26 September, Saturday

Time Temperature Precipitation Wind Pressure Humidity
00:00 +3°C° 2.6 mm 1 mps 668 mmHg 99%
01:00 +3°C° 2.6 mm 1 mps 668 mmHg 99%
02:00 +3°C° 1.9 mm 1 mps 668 mmHg 99%
03:00 +3°C° 1.9 mm 1 mps 668 mmHg 99%
04:00 +3°C° 1.9 mm 1 mps 667 mmHg 99%
05:00 +3°C° 1.5 mm 1 mps 668 mmHg 99%
06:00 +2°C° 1.5 mm 2 mps 668 mmHg 99%
07:00 +2°C° 1.5 mm 2 mps 668 mmHg 98%
08:00 +2°C° 0.9 mm 2 mps 668 mmHg 98%
09:00 +2°C° 0.9 mm 2 mps 669 mmHg 98%
10:00 +2°C° 0.9 mm 2 mps 669 mmHg 98%
11:00 +3°C° 0.5 mm 2 mps 669 mmHg 97%
12:00 +3°C° 0.5 mm 2 mps 669 mmHg 97%
13:00 +3°C° 0.5 mm 2 mps 669 mmHg 96%
14:00 +3°C° 0.5 mm 2 mps 669 mmHg 95%
15:00 +3°C° 0.5 mm 2 mps 669 mmHg 95%
16:00 +3°C° 0.5 mm 2 mps 669 mmHg 94%
17:00 +4°C° 0.3 mm 1 mps 669 mmHg 95%
18:00 +3°C° 0.3 mm 1 mps 670 mmHg 95%
19:00 +2°C° 0.3 mm 1 mps 671 mmHg 95%
20:00 +2°C° 0.1 mm 1 mps 671 mmHg 94%
21:00 +2°C° 0.1 mm 1 mps 671 mmHg 94%
22:00 +2°C° 0.1 mm 1 mps 671 mmHg 93%
23:00 -1°C° 0.1 mm 2 mps 671 mmHg 93%
Show more